Hourly Weather Bolshoe Savino

Today, 23 July, Friday

Time Temperature Precipitation Wind Pressure Humidity
00:00 +14°C° 0.1 mm 2 mps 742 mmHg 83%
01:00 +13°C° 0.1 mm 3 mps 742 mmHg 87%
02:00 +13°C° 0 mm 3 mps 742 mmHg 92%
03:00 +13°C° 0.2 mm 3 mps 741 mmHg 92%
04:00 +13°C° 0.2 mm 3 mps 741 mmHg 93%
05:00 +13°C° 0.2 mm 3 mps 740 mmHg 93%
06:00 +13°C° 0.2 mm 3 mps 740 mmHg 94%
07:00 +13°C° 0.2 mm 3 mps 740 mmHg 94%
08:00 +13°C° 0 mm 3 mps 740 mmHg 94%
09:00 +16°C° 0.2 mm 3 mps 740 mmHg 82%
10:00 +18°C° 0.2 mm 4 mps 740 mmHg 70%
11:00 +20°C° 0.2 mm 5 mps 740 mmHg 58%
12:00 +20°C° 0.1 mm 5 mps 740 mmHg 53%
13:00 +21°C° 0.1 mm 5 mps 740 mmHg 48%
14:00 +21°C° 0.1 mm 5 mps 740 mmHg 43%
15:00 +20°C° 0 mm 5 mps 740 mmHg 45%
16:00 +20°C° 0 mm 5 mps 741 mmHg 46%
17:00 +19°C° 0 mm 5 mps 741 mmHg 48%
18:00 +18°C° 0 mm 4 mps 741 mmHg 52%
19:00 +17°C° 0 mm 4 mps 742 mmHg 55%
20:00 +16°C° 0 mm 3 mps 742 mmHg 59%
21:00 +13°C° 0 mm 3 mps 742 mmHg 65%
22:00 +12°C° 0 mm 3 mps 743 mmHg 71%
23:00 +11°C° 0 mm 3 mps 743 mmHg 77%

Tomorrow, 24 July, Saturday

Time Temperature Precipitation Wind Pressure Humidity
00:00 +10°C° 0 mm 2 mps 743 mmHg 79%
01:00 +10°C° 0 mm 2 mps 744 mmHg 81%
02:00 +10°C° 0 mm 2 mps 744 mmHg 82%
03:00 +10°C° 0 mm 2 mps 745 mmHg 82%
04:00 +12°C° 0 mm 2 mps 745 mmHg 82%
05:00 +12°C° 0 mm 2 mps 745 mmHg 82%
06:00 +13°C° 0 mm 2 mps 746 mmHg 73%
07:00 +14°C° 0 mm 3 mps 746 mmHg 64%
08:00 +17°C° 0 mm 3 mps 747 mmHg 55%
09:00 +17°C° 0 mm 3 mps 747 mmHg 49%
10:00 +18°C° 0 mm 3 mps 747 mmHg 42%
11:00 +19°C° 0 mm 3 mps 747 mmHg 36%
12:00 +20°C° 0 mm 3 mps 748 mmHg 34%
13:00 +21°C° 0 mm 3 mps 748 mmHg 32%
14:00 +21°C° 0 mm 3 mps 748 mmHg 30%
15:00 +21°C° 0 mm 3 mps 748 mmHg 30%
16:00 +21°C° 0 mm 3 mps 748 mmHg 31%
17:00 +21°C° 0 mm 2 mps 748 mmHg 32%
18:00 +19°C° 0 mm 2 mps 749 mmHg 38%
19:00 +18°C° 0 mm 1 mps 749 mmHg 44%
20:00 +15°C° 0 mm 1 mps 749 mmHg 50%
21:00 +15°C° 0 mm 1 mps 749 mmHg 51%
22:00 +14°C° 0 mm 1 mps 750 mmHg 52%
23:00 +14°C° 0 mm 2 mps 750 mmHg 52%

Day after tomorrow, 25 July, Sunday

Time Temperature Precipitation Wind Pressure Humidity
00:00 +14°C° 0 mm 2 mps 750 mmHg 54%
01:00 +14°C° 0 mm 2 mps 750 mmHg 55%
02:00 +14°C° 0 mm 2 mps 751 mmHg 56%
03:00 +14°C° 0 mm 2 mps 751 mmHg 57%
04:00 +14°C° 0 mm 2 mps 751 mmHg 58%
05:00 +15°C° 0 mm 2 mps 751 mmHg 59%
06:00 +16°C° 0 mm 2 mps 751 mmHg 53%
07:00 +18°C° 0 mm 2 mps 752 mmHg 48%
08:00 +20°C° 0 mm 2 mps 752 mmHg 43%
09:00 +21°C° 0 mm 2 mps 752 mmHg 39%
10:00 +23°C° 0 mm 2 mps 752 mmHg 35%
11:00 +24°C° 0 mm 3 mps 752 mmHg 31%
12:00 +24°C° 0 mm 3 mps 752 mmHg 31%
13:00 +25°C° 0 mm 3 mps 752 mmHg 31%
14:00 +25°C° 0 mm 3 mps 752 mmHg 30%
15:00 +25°C° 0 mm 3 mps 752 mmHg 32%
16:00 +25°C° 0 mm 3 mps 752 mmHg 33%
17:00 +24°C° 0 mm 3 mps 752 mmHg 35%
18:00 +21°C° 0 mm 2 mps 753 mmHg 41%
19:00 +19°C° 0 mm 2 mps 753 mmHg 46%
20:00 +18°C° 0 mm 1 mps 753 mmHg 52%
21:00 +16°C° 0 mm 1 mps 753 mmHg 53%
22:00 +15°C° 0 mm 1 mps 753 mmHg 54%
23:00 +15°C° 0 mm 1 mps 754 mmHg 55%

26 July, Monday

Time Temperature Precipitation Wind Pressure Humidity
00:00 +15°C° 0 mm 1 mps 754 mmHg 54%
01:00 +15°C° 0 mm 1 mps 754 mmHg 52%
02:00 +16°C° 0 mm 1 mps 754 mmHg 51%
03:00 +16°C° 0 mm 1 mps 754 mmHg 52%
04:00 +16°C° 0 mm 1 mps 754 mmHg 53%
05:00 +18°C° 0 mm 1 mps 754 mmHg 54%
06:00 +18°C° 0 mm 2 mps 754 mmHg 54%
07:00 +19°C° 0 mm 2 mps 754 mmHg 53%
08:00 +20°C° 0 mm 2 mps 754 mmHg 53%
09:00 +21°C° 0 mm 2 mps 754 mmHg 51%
10:00 +23°C° 0 mm 2 mps 754 mmHg 49%
11:00 +24°C° 0 mm 2 mps 754 mmHg 47%
12:00 +25°C° 0 mm 3 mps 754 mmHg 45%
13:00 +25°C° 0 mm 3 mps 754 mmHg 44%
14:00 +26°C° 0 mm 4 mps 753 mmHg 43%
15:00 +26°C° 0 mm 3 mps 753 mmHg 44%
16:00 +26°C° 0 mm 3 mps 753 mmHg 45%
17:00 +26°C° 0 mm 2 mps 753 mmHg 45%
18:00 +24°C° 0 mm 2 mps 753 mmHg 50%
19:00 +23°C° 0 mm 1 mps 753 mmHg 55%
20:00 +21°C° 0 mm 1 mps 753 mmHg 60%
21:00 +20°C° 0 mm 1 mps 753 mmHg 61%
22:00 +19°C° 0 mm 1 mps 753 mmHg 63%
23:00 +19°C° 0 mm 1 mps 753 mmHg 64%

27 July, Tuesday

Time Temperature Precipitation Wind Pressure Humidity
00:00 +18°C° 0 mm 1 mps 754 mmHg 66%
01:00 +17°C° 0 mm 2 mps 754 mmHg 67%
02:00 +17°C° 0 mm 2 mps 754 mmHg 68%
03:00 +17°C° 0 mm 2 mps 754 mmHg 67%
04:00 +18°C° 0 mm 2 mps 754 mmHg 67%
05:00 +19°C° 0 mm 1 mps 754 mmHg 66%
06:00 +21°C° 0 mm 1 mps 754 mmHg 60%
07:00 +23°C° 0 mm 2 mps 754 mmHg 53%
08:00 +26°C° 0 mm 2 mps 754 mmHg 47%
09:00 +27°C° 0 mm 2 mps 754 mmHg 42%
10:00 +28°C° 0 mm 2 mps 754 mmHg 37%
11:00 +30°C° 0 mm 2 mps 753 mmHg 32%
12:00 +29°C° 0 mm 2 mps 753 mmHg 34%
13:00 +29°C° 0 mm 2 mps 753 mmHg 36%
14:00 +28°C° 0 mm 3 mps 753 mmHg 39%
15:00 +28°C° 0 mm 2 mps 753 mmHg 40%
16:00 +27°C° 0 mm 2 mps 752 mmHg 42%
17:00 +27°C° 0 mm 1 mps 752 mmHg 44%
18:00 +25°C° 0 mm 1 mps 752 mmHg 50%
19:00 +24°C° 0 mm 2 mps 752 mmHg 55%
20:00 +21°C° 0 mm 2 mps 752 mmHg 61%
21:00 +21°C° 0 mm 1 mps 752 mmHg 62%
22:00 +21°C° 0 mm 1 mps 752 mmHg 62%
23:00 +20°C° 0 mm 1 mps 752 mmHg 63%

28 July, Wednesday

Time Temperature Precipitation Wind Pressure Humidity
00:00 +19°C° 0 mm 1 mps 752 mmHg 65%
01:00 +19°C° 0 mm 1 mps 752 mmHg 67%
02:00 +17°C° 0 mm 2 mps 752 mmHg 69%
03:00 +17°C° 0 mm 2 mps 751 mmHg 69%
04:00 +18°C° 0 mm 2 mps 751 mmHg 68%
05:00 +18°C° 0 mm 2 mps 751 mmHg 68%
06:00 +20°C° 0 mm 2 mps 751 mmHg 60%
07:00 +24°C° 0 mm 2 mps 751 mmHg 52%
08:00 +26°C° 0 mm 3 mps 751 mmHg 44%
09:00 +28°C° 0 mm 3 mps 750 mmHg 40%
10:00 +29°C° 0 mm 4 mps 750 mmHg 35%
11:00 +30°C° 0 mm 4 mps 749 mmHg 31%
12:00 +30°C° 0 mm 4 mps 749 mmHg 32%
13:00 +30°C° 0 mm 4 mps 749 mmHg 34%
14:00 +30°C° 0 mm 4 mps 748 mmHg 36%
15:00 +29°C° 0 mm 4 mps 748 mmHg 39%
16:00 +28°C° 0 mm 4 mps 748 mmHg 43%
17:00 +28°C° 0 mm 4 mps 748 mmHg 46%
18:00 +26°C° 0 mm 4 mps 748 mmHg 54%
19:00 +22°C° 0 mm 3 mps 747 mmHg 62%
20:00 +20°C° 0 mm 3 mps 747 mmHg 70%
21:00 +20°C° 0 mm 2 mps 747 mmHg 70%
22:00 +19°C° 0 mm 2 mps 747 mmHg 71%
23:00 +19°C° 0 mm 2 mps 746 mmHg 72%
Show more

We Need Your Consent

Meteoprog and our Service Providers may store and access personal data such as cookies, device identifiers or other similar technologies on your device and process such data to personalise content and ads, as well as provide social media features and to analyse the traffic.

  • Store and/or access information on your device

    Cookies, device identifiers or other information can be stored or accessed on your device for the purposes indicated above.

  • Personalised ads and content, ad and content measurement, audience insights, and products development

    Ads and content can be personalised based on a profile. More data can be added to better personalise ads and content. Ad and content performance can be measured. Insights about the audience who saw the ads and content can be derived. Such data can be used to develop or improve user’s experience, systems and software.

By clicking ‘I Agree’ you will allow the use of indicated cookies, device identifiers, web beacons or other similar technologies. Your settings can be changed in the browser on your device.

For certain purposes, legitimate interests may be relied on, rather than consent. You can read more about this in our Privacy and Cookie Policy.